Regional Weather Roundup
Issued by NWS

Home | Current Version | Previous Version | Graphics & Text | Print | Product List | Glossary On
Versions: 1 2 3 4 5 6 7 8 9 10 11 12 13 14 15 16 17 18 19 20 21 22 23 24 25 26 27 28 29 30 31 32 33 34 35 36 37 38 39 40 41 42 43 44 45 46 47 48 49 50
000
ASUS43 KMKX 220711
RWRWI

WISCONSIN REGIONAL WEATHER ROUNDUP
NATIONAL WEATHER SERVICE MILWAUKEE/SULLIVAN WI
200 AM CDT TUE AUG 22 2017

NOTE: "FAIR" INDICATES FEW OR NO CLOUDS BELOW 12,000 FEET WITH NO
SIGNIFICANT WEATHER AND/OR OBSTRUCTIONS TO VISIBILITY.

WIZ001-002-006>008-014>016-023>028-220800-
NORTHWEST WISCONSIN

CITY           SKY/WX    TMP DP  RH WIND       PRES   REMARKS
SUPERIOR ARPT    N/A     56  56 100 CALM      29.84S
ASHLAND        CLOUDY    59  57  93 N5        29.81F
HAYWARD        MOCLDY    62  58  86 N8        29.83R
SIREN          CLEAR     64  61  91 NW7       29.85R
CUMBERLAND     CLOUDY    64  61  88 NW8       29.84R
RICE LAKE      CLOUDY    66  63  89 W9        29.84R
CHETEK         CLOUDY    66  64  94 W6        29.82S
LADYSMITH      CLOUDY    65  64  96 SW6       29.82F
EAU CLAIRE     CLOUDY    66  63  90 SW8       29.82F
MENOMONIE      CLOUDY    67  64  92 SW7       29.84S
NEW RICHMOND   CLOUDY    65  62  91 W9        29.87R
OSCEOLA        MOCLDY    65  65 100 W7        29.89R
$$

WIZ003>005-009-010-017-018-220800-
NORTH CENTRAL WISCONSIN

CITY           SKY/WX    TMP DP  RH WIND       PRES   REMARKS
MANITOWISH WTR HVY RAIN  62  62 100 NW8G21    29.77S
ARBOR VITAE    MOCLDY    65  63  95 W9        29.77F
WOODRUFF       MOCLDY    65  63  95 W9        29.77F
RHINELANDER    CLOUDY    65  64  97 SW8       29.79F
EAGLE RIVER    RAIN      65  64  95 SW12G17   29.76F
LAND O LAKES   HVY RAIN  66  65  97 SW3       29.77F
PHILLIPS       CLOUDY    65  64  99 W7        29.79F
TOMAHAWK         N/A     64  62  94 SW3       29.80F
MEDFORD        CLOUDY    64  62  94 W7        29.81F
MERRILL        CLOUDY    66  64  94 SW6       29.80F
$$

WIZ029-030-035-036-043>047-220800-
CENTRAL WISCONSIN

CITY           SKY/WX    TMP DP  RH WIND       PRES   REMARKS
WAUSAU         CLOUDY    66  62  87 SW9       29.80F
MOSINEE        CLOUDY    64  63  94 SW9       29.84S
MARSHFIELD     CLOUDY    66  61  84 SW9       29.82F
STEVENS POINT  CLOUDY    64  63  97 W8        29.83S
WAUPACA        MOCLDY    69  65  87 W7        29.81F
WAUTOMA        CLOUDY    66  64  93 W8        29.84F
WISC RAPIDS    CLOUDY    65  63  93 W7        29.84F
CAMP DOUGLAS   CLOUDY    64  64 100 W7        29.85F
$$

WIZ011>013-019>022-031-037>040-048>050-220800-
NORTHEAST WISCONSIN

CITY           SKY/WX    TMP DP  RH WIND       PRES   REMARKS
ANTIGO         MOCLDY    63  63  99 W9        29.81F
SHAWANO        MOCLDY    69  63  80 W8        29.78F
OCONTO         MOCLDY    69  64  83 W8        29.76F
STURGEON BAY   CLOUDY    70  67  90 SW8       29.77F
GREEN BAY      CLOUDY    70  67  90 SW7       29.78F
MANITOWOC        N/A    N/A N/A N/A MISG        N/A
APPLETON       CLOUDY    68  61  77 W8        29.79F
CLINTONVILLE   MOCLDY    68  61  77 W7        29.80F
OSHKOSH        CLOUDY    69  65  86 W6        29.80F
$$

WIZ032>034-041-042-053>061-220800-
SOUTHWEST WISCONSIN

CITY           SKY/WX    TMP DP  RH WIND       PRES   REMARKS
LA CROSSE      MOCLDY    69  64  84 W8        29.86F
SPARTA         CLOUDY    61  61 100 CALM      29.86F
VIROQUA        MOCLDY    63  63 100 CALM      29.90F
BOSCOBEL       CLOUDY    68  63  84 VRB5      29.89F
PRAIRIE DU CHI CLOUDY    65  62  89 SW3       29.91S
PLATTEVILLE    CLOUDY    67  67 100 W12G17    29.91S
$$

WIZ056-057-062-063-064-067-068-220800-
SOUTH CENTRAL WISCONSIN

CITY           SKY/WX    TMP DP  RH WIND       PRES   REMARKS
REEDSBURG      CLOUDY    65  65 100 W8        29.86F
BARABOO/DELLS  CLOUDY    65  62  88 W5        29.86F
LONE ROCK      CLOUDY    67  65  93 W6        29.87S
MINERAL POINT  CLOUDY    68  68 100 NW9       29.90S
MADISON        CLOUDY    70  66  87 NW6       29.84S
MIDDLETON      CLOUDY    69  68  96 NW9       29.86F
WATERTOWN      CLOUDY    71  71 100 W6        29.84S
MONROE         CLOUDY    70  66  88 W14G21    29.86S
JANESVILLE     CLOUDY    73  72  94 W12       29.84S
$$

WIZ051-052-058>065-066-070>072-220800-
SOUTHEAST WISCONSIN

CITY           SKY/WX    TMP DP  RH WIND       PRES   REMARKS
MILWAUKEE      MOCLDY    75  70  84 SW10      29.82R
WAUKESHA       LGT RAIN  70  68  94 W7        29.84S
MILWAUKEE/TIMM CLOUDY    72  64  78 W10       29.83S
RACINE         CLOUDY    74  70  87 SW8       29.84R
KENOSHA        CLOUDY    73  69  87 SW9       29.83S
FOND DU LAC    CLOUDY    71  64  78 W7        29.82F
SHEBOYGAN      CLOUDY    71  70  96 W6        29.80F
WEST BEND      CLOUDY    72  68  88 W8        29.82F
JUNEAU         CLOUDY    69  65  88 W5        29.85S
$$

LSZ147-162-220800-
LAKE SUPERIOR

STATION/POSITION TIME  TEMP    WIND        PRES    WAVE
                       AIR SEA DIR/SP/G            HT/PER
                 (UTC) (F)     (DEG/KT/KT) (MB)    (FT/S)
W MID LAKE BUOY  0650   58 60  320/ 10/ 12 1008.2F   1/ 2
DEVILS ISLAND    0700   58     340/  7/  8 1009.5F
PORT WING        0530   61      30/ 10/ 11 1010.2
SAXON HARBOR     0640   61      40/  8/ 13 1009.1S
$$

LMZ867-665-643>646-220800-
LAKE MICHIGAN

STATION/POSITION TIME  TEMP    WIND        PRES    WAVE
                       AIR SEA DIR/SP/G            HT/PER
                 (UTC) (F)     (DEG/KT/KT) (MB)    (FT/S)
S GREEN BAY BUOY 0700   72 72  220/ 10/ 14 1007.7
N MID LAKE BUOY  0650   69 68  210/ 16/ 19 1006.9F   2/ 4
NORTHPORT PIER   0640   71     240/  2/  7 1007.1F
KEWAUNEE LAKESHO 0648          260/  5/  7 1007.7F
SHEBOYGAN LAKESH 0700   73     270/  8/ 10 1008.5F
PORT WASHINGTON  0640   74     270/  7/ 11 1010.2S
ATWATER BUOY     0609   74 69  240/ 10/ 12 1009.6F
MILWAUKEE LAKESH 0630   75     270/ 11/ 18   N/A
S MID LAKE BUOY  0650   73 72  230/ 17/ 21 1009.2F   1/ 4
KENOSHA   LAKESH 0700   75     230/  8/ 14 1009.8
$$

TC  - TEMPERATURE IN CELSIUS
VSB - VISIBILITY IN STATUTE MILES
WCI - WIND CHILL INDEX
HX  - HEAT INDEX





USA.gov is the U.S. government's official web portal to all federal, state and local government web resources and services.